This demonstration page uses our WeatherBlox Daily Observations layout. Learn more.

Left ArrowRight Arrow

30.21309, -93.2044

Hourly Observations for April 2, 2022

Temp ( °F °C ) Dew Point ( °F °C ) Humidity (%) Winds ( mph kmh ) Pressure ( in mb ) Visibility ( mi km ) Precip ( " mm )
12:15 am 00:15 Clear 56 13.6 49 9.4 76 76 E 3 6 30.00 1016 10 16 0.00 0.00
12:35 am 00:35 Clear 56 13.5 49 9.7 78 78 E 6 9 30.00 1016 10 16 0.00 0.00
12:55 am 00:55 Clear 54 12 49 9.6 85 85 ESE 6 9 30.00 1016 10 16 0.00 0.00
1:15 am 01:15 Partly Cloudy 56 13.3 50 10.2 82 82 E 5 7 30.00 1016 10 16 0.00 0.00
1:35 am 01:35 Mostly Cloudy 58 14.2 50 9.9 76 76 ENE 3 6 30.00 1016 10 16 0.00 0.00
1:55 am 01:55 Cloudy 58 14.7 50 10.1 74 74 ENE 3 6 30.00 1016 10 16 0.00 0.00
2:15 am 02:15 Cloudy 59 14.8 50 10 73 73 Calm 30.00 1016 10 16 0.00 0.00
2:35 am 02:35 Mostly Cloudy 59 14.8 51 10.3 75 75 NE 3 6 29.99 1016 10 16 0.00 0.00
2:55 am 02:55 Cloudy 59 15.1 50 10 72 72 ENE 5 7 29.98 1015 10 16 0.00 0.00
3:15 am 03:15 Mostly Cloudy 59 15.2 50 10.1 72 72 NE 6 9 29.98 1015 10 16 0.00 0.00
3:35 am 03:35 Cloudy 59 14.8 50 9.8 72 72 NE 7 11 29.98 1015 10 16 0.00 0.00
3:55 am 03:55 Cloudy 59 15 50 9.9 72 72 E 6 9 29.97 1015 10 16 0.00 0.00
4:15 am 04:15 Mostly Cloudy 58 14.5 50 9.9 74 74 NNE 6 9 29.97 1015 10 16 0.00 0.00
4:35 am 04:35 Mostly Cloudy 58 14.4 50 10 75 75 NNE 6 9 29.97 1015 10 16 0.00 0.00
4:55 am 04:55 Mostly Cloudy 58 14.4 49 9.7 74 74 ENE 6 9 29.96 1015 10 16 0.00 0.00
5:15 am 05:15 Mostly Cloudy 58 14.2 50 9.9 76 76 ENE 3 6 29.97 1015 10 16 0.00 0.00
5:35 am 05:35 Partly Cloudy 57 13.7 50 9.8 77 77 NNE 3 6 29.97 1015 10 16 0.00 0.00
6:00 am 06:00 Mostly Clear 55 13 48 9 77 77 E 7 11 29.95 1014 10 16 0.00 0.00
6:48 am 06:48 Mostly Clear 55 13 48 9 77 77 Calm 29.97 1015 10 16 0.00 0.00
7:53 am 07:53 Partly Cloudy 57 14 50 10 77 77 N 6 9 30.00 1016 10 16 0.00 0.00
8:51 am 08:51 Mostly Cloudy 59 15 48 9 68 68 N 10 17 30.03 1017 10 16 0.00 0.00
9:50 am 09:50 Partly Cloudy 66 19 52 11 60 60 E 10 17 30.01 1016 10 16 0.00 0.00
10:55 am 10:55 Partly Cloudy 72 22 50 10 47 47 E 12 19 30.02 1017 10 16 0.00 0.00
11:55 am 11:55 Mostly Cloudy 73 23 52 11 47 47 E 7 11 30.02 1017 10 16 0.00 0.00
1:46 pm 13:46 Mostly Cloudy 75 24 55 13 50 50 Calm 30.00 1016 10 16 0.00 0.00
2:45 pm 14:45 Mostly Cloudy 79 26 57 14 48 48 Calm 29.98 1015 10 16 0.00 0.00
3:45 pm 15:45 Mostly Sunny 79 26 57 14 48 48 Calm 29.95 1014 10 16 0.00 0.00
4:45 pm 16:45 Mostly Sunny 79 26 55 13 45 45 Calm 29.94 1014 10 16 0.00 0.00
5:55 pm 17:55 Mostly Sunny 79 26 55 13 45 45 Calm 29.94 1014 10 16 0.00 0.00
6:45 pm 18:45 Mostly Sunny 77 25 57 14 51 51 Calm 29.95 1014 10 16 0.00 0.00
7:45 pm 19:45 Mostly Clear 73 23 57 14 57 57 ESE 6 9 29.95 1014 10 16 0.00 0.00
8:45 pm 20:45 Mostly Clear 66 19 61 16 83 83 Calm 29.97 1015 10 16 0.00 0.00
9:45 pm 21:45 Mostly Clear 63 17 61 16 94 94 Calm 29.99 1016 10 16 0.00 0.00
10:15 pm 22:15 Clear 61 15.9 59 14.9 94 94 S 5 7 30.00 1016 10 16 0.00 0.00
10:35 pm 22:35 Mostly Cloudy with Mist and Fog 59 15 57 14.1 94 94 SSE 5 7 30.00 1016 2 2 0.00 0.00
10:55 pm 22:55 Clear 60 15.5 58 14.7 95 95 SSE 5 7 30.01 1016 10 16 0.00 0.00
11:15 pm 23:15 Clear 61 16.1 60 15.3 95 95 S 5 7 30.01 1016 10 16 0.00 0.00
11:35 pm 23:35 Clear 61 16 59 15.2 95 95 Calm 30.01 1016 10 16 0.00 0.00
11:55 pm 23:55 Clear 61 16 59 15.1 94 94 Calm 30.01 1016 7 11 0.00 0.00

Powered by AerisWeather